LOCATION_NAME,SAMPLE COLLECTION TIME,DOSE EQUIVALENT RATE (nSv/h),GAMMA COUNT RATE R02 (CPM),GAMMA COUNT RATE R03 (CPM),GAMMA COUNT RATE R04 (CPM),GAMMA COUNT RATE R05 (CPM),GAMMA COUNT RATE R06 (CPM),GAMMA COUNT RATE R07 (CPM),GAMMA COUNT RATE R08 (CPM),GAMMA COUNT RATE R09 (CPM),STATUS
OR: CORVALLIS,01/01/2011 00:47:00,,1583.00,919.00,272.00,138.00,91.00,115.00,66.00,26.00,APPROVED
OR: CORVALLIS,01/01/2011 01:47:00,,1592.00,919.00,274.00,137.00,91.00,115.00,65.00,24.00,APPROVED
OR: CORVALLIS,01/01/2011 02:47:00,,1609.00,934.00,276.00,138.00,93.00,118.00,63.00,26.00,APPROVED
OR: CORVALLIS,01/01/2011 03:48:00,,1630.00,955.00,282.00,138.00,93.00,117.00,66.00,26.00,APPROVED
OR: CORVALLIS,01/01/2011 04:48:00,,1629.00,951.00,281.00,140.00,92.00,117.00,67.00,26.00,APPROVED
OR: CORVALLIS,01/01/2011 05:48:00,,1625.00,942.00,280.00,138.00,92.00,116.00,69.00,26.00,APPROVED
OR: CORVALLIS,01/01/2011 06:49:00,,1621.00,943.00,276.00,139.00,94.00,113.00,64.00,26.00,APPROVED
OR: CORVALLIS,01/01/2011 07:49:00,,1622.00,942.00,279.00,140.00,93.00,117.00,65.00,25.00,APPROVED
OR: CORVALLIS,01/01/2011 08:49:00,,1631.00,947.00,280.00,139.00,91.00,116.00,66.00,26.00,APPROVED
OR: CORVALLIS,01/01/2011 09:49:00,,1615.00,935.00,276.00,137.00,92.00,115.00,65.00,26.00,APPROVED
OR: CORVALLIS,01/01/2011 10:50:00,,1636.00,947.00,282.00,141.00,92.00,117.00,65.00,26.00,APPROVED
OR: CORVALLIS,01/01/2011 11:50:00,,1633.00,954.00,283.00,141.00,94.00,119.00,67.00,26.00,APPROVED
OR: CORVALLIS,01/01/2011 12:50:00,,1640.00,953.00,285.00,141.00,94.00,117.00,65.00,27.00,APPROVED
OR: CORVALLIS,01/01/2011 13:50:00,,1626.00,949.00,282.00,138.00,92.00,115.00,65.00,26.00,APPROVED
OR: CORVALLIS,01/01/2011 14:51:00,,1628.00,944.00,279.00,136.00,91.00,118.00,66.00,26.00,APPROVED
OR: CORVALLIS,01/01/2011 15:51:00,,1627.00,946.00,280.00,139.00,89.00,113.00,64.00,26.00,APPROVED
OR: CORVALLIS,01/01/2011 16:51:00,,1630.00,948.00,278.00,138.00,94.00,117.00,65.00,27.00,APPROVED
OR: CORVALLIS,01/01/2011 17:51:00,,1633.00,960.00,282.00,142.00,92.00,116.00,67.00,26.00,APPROVED
OR: CORVALLIS,01/01/2011 18:52:00,,1621.00,955.00,283.00,142.00,96.00,118.00,70.00,26.00,APPROVED
OR: CORVALLIS,01/01/2011 19:52:00,,1595.00,952.00,282.00,142.00,92.00,117.00,69.00,26.00,APPROVED
OR: CORVALLIS,01/01/2011 20:52:00,,1561.00,944.00,287.00,148.00,95.00,116.00,69.00,26.00,APPROVED
OR: CORVALLIS,01/01/2011 21:52:00,,1572.00,945.00,284.00,145.00,96.00,116.00,72.00,27.00,APPROVED
OR: CORVALLIS,01/01/2011 22:53:00,,1578.00,949.00,287.00,144.00,92.00,118.00,71.00,27.00,APPROVED
OR: CORVALLIS,01/01/2011 23:53:00,,1605.00,953.00,289.00,147.00,93.00,119.00,71.00,27.00,APPROVED
OR: CORVALLIS,01/02/2011 00:53:00,,1610.00,951.00,282.00,145.00,95.00,117.00,69.00,26.00,APPROVED
OR: CORVALLIS,01/02/2011 01:53:00,,1609.00,956.00,284.00,144.00,94.00,118.00,69.00,26.00,APPROVED
OR: CORVALLIS,01/02/2011 02:54:00,,1619.00,957.00,286.00,144.00,96.00,116.00,68.00,26.00,APPROVED
OR: CORVALLIS,01/02/2011 03:54:00,,1634.00,958.00,285.00,143.00,94.00,120.00,68.00,27.00,APPROVED
OR: CORVALLIS,01/02/2011 04:54:00,,1635.00,964.00,285.00,138.00,94.00,120.00,67.00,26.00,APPROVED
OR: CORVALLIS,01/02/2011 05:54:00,,1656.00,967.00,287.00,145.00,96.00,122.00,65.00,26.00,APPROVED
OR: CORVALLIS,01/02/2011 06:55:00,,1665.00,979.00,287.00,143.00,94.00,124.00,64.00,27.00,APPROVED
OR: CORVALLIS,01/02/2011 07:55:00,,1682.00,993.00,293.00,143.00,92.00,124.00,61.00,28.00,APPROVED
OR: CORVALLIS,01/02/2011 08:55:00,,1697.00,997.00,293.00,143.00,95.00,125.00,60.00,26.00,APPROVED
OR: CORVALLIS,01/02/2011 09:55:00,,1699.00,993.00,299.00,144.00,95.00,126.00,60.00,27.00,APPROVED
OR: CORVALLIS,01/02/2011 10:56:00,,1706.00,994.00,298.00,142.00,95.00,127.00,60.00,26.00,APPROVED
OR: CORVALLIS,01/02/2011 11:56:00,,1706.00,989.00,297.00,143.00,94.00,130.00,59.00,27.00,APPROVED
OR: CORVALLIS,01/02/2011 12:56:00,,1712.00,996.00,297.00,143.00,95.00,128.00,57.00,27.00,APPROVED
OR: CORVALLIS,01/02/2011 13:57:00,,1724.00,1007.00,299.00,145.00,96.00,130.00,57.00,28.00,APPROVED
OR: CORVALLIS,01/02/2011 14:57:00,,1730.00,1011.00,304.00,141.00,96.00,132.00,55.00,27.00,APPROVED
OR: CORVALLIS,01/02/2011 15:57:00,,1738.00,1019.00,306.00,145.00,98.00,137.00,58.00,27.00,APPROVED
OR: CORVALLIS,01/02/2011 16:57:00,,1743.00,1012.00,306.00,145.00,97.00,131.00,58.00,27.00,APPROVED
OR: CORVALLIS,01/02/2011 17:58:00,,1736.00,1018.00,303.00,146.00,97.00,128.00,61.00,26.00,APPROVED
OR: CORVALLIS,01/02/2011 18:58:00,,1716.00,1017.00,301.00,147.00,96.00,129.00,64.00,27.00,APPROVED
OR: CORVALLIS,01/02/2011 19:58:00,,1696.00,1026.00,307.00,155.00,100.00,128.00,71.00,27.00,APPROVED
OR: CORVALLIS,01/02/2011 20:58:00,,1672.00,1023.00,313.00,153.00,101.00,129.00,76.00,27.00,APPROVED
OR: CORVALLIS,01/02/2011 21:59:00,,1644.00,1019.00,314.00,158.00,100.00,130.00,75.00,28.00,APPROVED
OR: CORVALLIS,01/02/2011 22:59:00,,1610.00,1013.00,313.00,160.00,101.00,127.00,79.00,28.00,APPROVED
OR: CORVALLIS,01/02/2011 23:59:00,,1602.00,999.00,309.00,158.00,102.00,127.00,78.00,28.00,APPROVED
OR: CORVALLIS,01/03/2011 00:59:00,,1653.00,1018.00,308.00,155.00,101.00,126.00,77.00,26.00,APPROVED
OR: CORVALLIS,01/03/2011 02:00:00,,1703.00,1034.00,307.00,157.00,99.00,131.00,72.00,28.00,APPROVED
OR: CORVALLIS,01/03/2011 03:00:00,,1722.00,1037.00,309.00,154.00,98.00,130.00,69.00,27.00,APPROVED
OR: CORVALLIS,01/03/2011 04:00:00,,1740.00,1029.00,308.00,150.00,100.00,128.00,66.00,27.00,APPROVED
OR: CORVALLIS,01/03/2011 05:00:00,,1753.00,1047.00,312.00,151.00,98.00,133.00,63.00,28.00,APPROVED
OR: CORVALLIS,01/03/2011 06:01:00,,1772.00,1034.00,309.00,146.00,99.00,135.00,61.00,27.00,APPROVED
OR: CORVALLIS,01/03/2011 07:01:00,,1770.00,1047.00,317.00,149.00,102.00,133.00,59.00,27.00,APPROVED
OR: CORVALLIS,01/03/2011 08:01:00,,1774.00,1056.00,316.00,151.00,100.00,137.00,59.00,26.00,APPROVED
OR: CORVALLIS,01/03/2011 09:01:00,,1769.00,1053.00,318.00,152.00,100.00,140.00,59.00,28.00,APPROVED
OR: CORVALLIS,01/03/2011 10:02:00,,1781.00,1058.00,317.00,153.00,101.00,138.00,58.00,26.00,APPROVED
OR: CORVALLIS,01/03/2011 11:02:00,,1786.00,1056.00,319.00,152.00,100.00,137.00,59.00,27.00,APPROVED
OR: CORVALLIS,01/03/2011 12:02:00,,1782.00,1081.00,321.00,157.00,99.00,134.00,65.00,29.00,APPROVED
OR: CORVALLIS,01/03/2011 13:02:00,,1767.00,1146.00,311.00,197.00,109.00,138.00,87.00,35.00,APPROVED
OR: CORVALLIS,01/03/2011 14:03:00,,1746.00,1164.00,304.00,200.00,110.00,140.00,90.00,36.00,APPROVED
OR: CORVALLIS,01/03/2011 15:03:00,,1790.00,1117.00,320.00,177.00,104.00,132.00,81.00,29.00,APPROVED
OR: CORVALLIS,01/03/2011 16:03:00,,1809.00,1102.00,329.00,163.00,104.00,136.00,68.00,27.00,APPROVED
OR: CORVALLIS,01/03/2011 17:04:00,,1810.00,1138.00,317.00,182.00,107.00,135.00,78.00,32.00,APPROVED
OR: CORVALLIS,01/03/2011 18:04:00,,1812.00,1146.00,317.00,185.00,109.00,137.00,84.00,33.00,APPROVED
OR: CORVALLIS,01/03/2011 19:04:00,,1867.00,1143.00,338.00,170.00,105.00,138.00,78.00,29.00,APPROVED
OR: CORVALLIS,01/03/2011 20:04:00,,1830.00,1127.00,338.00,168.00,106.00,139.00,79.00,29.00,APPROVED
OR: CORVALLIS,01/03/2011 21:05:00,,1783.00,1108.00,339.00,169.00,108.00,138.00,79.00,30.00,APPROVED
OR: CORVALLIS,01/03/2011 22:05:00,,1740.00,1087.00,332.00,170.00,109.00,136.00,81.00,30.00,APPROVED
OR: CORVALLIS,01/03/2011 23:05:00,,1740.00,1086.00,334.00,170.00,108.00,134.00,79.00,30.00,APPROVED
OR: CORVALLIS,01/04/2011 00:05:00,,1726.00,1084.00,329.00,172.00,108.00,139.00,82.00,31.00,APPROVED
OR: CORVALLIS,01/04/2011 01:06:00,,1664.00,1053.00,324.00,166.00,105.00,133.00,82.00,29.00,APPROVED
OR: CORVALLIS,01/04/2011 02:06:00,,1706.00,1048.00,319.00,163.00,102.00,134.00,74.00,27.00,APPROVED
OR: CORVALLIS,01/04/2011 03:06:00,,1748.00,1068.00,324.00,155.00,99.00,134.00,70.00,29.00,APPROVED
OR: CORVALLIS,01/04/2011 04:06:00,,1760.00,1064.00,318.00,154.00,99.00,133.00,66.00,28.00,APPROVED
OR: CORVALLIS,01/04/2011 05:07:00,,1769.00,1056.00,323.00,155.00,101.00,136.00,63.00,27.00,APPROVED
OR: CORVALLIS,01/04/2011 06:07:00,,1777.00,1063.00,321.00,151.00,97.00,137.00,64.00,27.00,APPROVED
OR: CORVALLIS,01/04/2011 07:07:00,,1779.00,1068.00,321.00,154.00,101.00,139.00,61.00,27.00,APPROVED
OR: CORVALLIS,01/04/2011 08:08:00,,1789.00,1080.00,321.00,155.00,102.00,140.00,61.00,29.00,APPROVED
OR: CORVALLIS,01/04/2011 09:09:00,,1786.00,1075.00,323.00,154.00,99.00,140.00,60.00,27.00,APPROVED
OR: CORVALLIS,01/04/2011 10:09:00,,1803.00,1086.00,325.00,154.00,101.00,142.00,61.00,29.00,APPROVED
OR: CORVALLIS,01/04/2011 11:09:00,,1838.00,1119.00,339.00,160.00,106.00,146.00,67.00,29.00,APPROVED
OR: CORVALLIS,01/04/2011 12:09:00,,1845.00,1122.00,338.00,164.00,105.00,145.00,67.00,28.00,APPROVED
OR: CORVALLIS,01/04/2011 13:10:00,,1850.00,1118.00,340.00,163.00,105.00,145.00,64.00,28.00,APPROVED
OR: CORVALLIS,01/04/2011 14:10:00,,1880.00,1153.00,346.00,162.00,105.00,150.00,66.00,28.00,APPROVED
OR: CORVALLIS,01/04/2011 15:10:00,,1939.00,1224.00,375.00,174.00,114.00,165.00,69.00,30.00,APPROVED
OR: CORVALLIS,01/04/2011 16:11:00,,2018.00,1346.00,425.00,196.00,125.00,182.00,77.00,33.00,APPROVED
OR: CORVALLIS,01/04/2011 17:08:00,,2040.00,1378.00,442.00,202.00,128.00,195.00,81.00,31.00,APPROVED
OR: CORVALLIS,01/04/2011 19:25:00,,1892.00,1107.00,324.00,155.00,101.00,139.00,64.00,28.00,APPROVED
OR: CORVALLIS,01/04/2011 20:25:00,,1947.00,1226.00,374.00,183.00,113.00,158.00,75.00,28.00,APPROVED
OR: CORVALLIS,01/04/2011 21:25:00,,1947.00,1248.00,381.00,186.00,115.00,163.00,80.00,30.00,APPROVED
OR: CORVALLIS,01/04/2011 22:25:00,,1916.00,1215.00,366.00,182.00,114.00,153.00,79.00,31.00,APPROVED
OR: CORVALLIS,01/04/2011 23:26:00,,1883.00,1166.00,356.00,177.00,110.00,151.00,76.00,29.00,APPROVED
OR: CORVALLIS,01/05/2011 00:26:00,,1824.00,1142.00,347.00,171.00,108.00,147.00,75.00,28.00,APPROVED
OR: CORVALLIS,01/05/2011 01:26:00,,1828.00,1146.00,353.00,176.00,110.00,149.00,77.00,28.00,APPROVED
OR: CORVALLIS,01/05/2011 02:26:00,,1833.00,1171.00,356.00,178.00,111.00,152.00,78.00,30.00,APPROVED
OR: CORVALLIS,01/05/2011 03:27:00,,1858.00,1216.00,373.00,186.00,115.00,160.00,81.00,30.00,APPROVED
OR: CORVALLIS,01/05/2011 04:27:00,,1869.00,1215.00,375.00,189.00,117.00,160.00,81.00,31.00,APPROVED
OR: CORVALLIS,01/05/2011 05:27:00,,1865.00,1200.00,369.00,187.00,114.00,158.00,80.00,30.00,APPROVED
OR: CORVALLIS,01/05/2011 06:27:00,,1843.00,1169.00,360.00,178.00,110.00,153.00,77.00,30.00,APPROVED
OR: CORVALLIS,01/05/2011 07:28:00,,1821.00,1116.00,338.00,169.00,107.00,143.00,74.00,30.00,APPROVED
OR: CORVALLIS,01/05/2011 08:28:00,,1808.00,1102.00,326.00,164.00,104.00,140.00,71.00,29.00,APPROVED
OR: CORVALLIS,01/05/2011 09:28:00,,1779.00,1071.00,323.00,161.00,102.00,134.00,72.00,27.00,APPROVED
OR: CORVALLIS,01/05/2011 10:28:00,,1769.00,1066.00,321.00,160.00,100.00,132.00,69.00,28.00,APPROVED
OR: CORVALLIS,01/05/2011 11:29:00,,1779.00,1072.00,317.00,155.00,101.00,135.00,70.00,27.00,APPROVED
OR: CORVALLIS,01/05/2011 12:29:00,,1777.00,1080.00,320.00,158.00,102.00,131.00,72.00,27.00,APPROVED
OR: CORVALLIS,01/05/2011 13:29:00,,1780.00,1083.00,318.00,159.00,103.00,133.00,73.00,27.00,APPROVED
OR: CORVALLIS,01/05/2011 14:29:00,,1822.00,1098.00,323.00,162.00,105.00,135.00,73.00,28.00,APPROVED
OR: CORVALLIS,01/05/2011 15:30:00,,1831.00,1108.00,329.00,166.00,105.00,136.00,75.00,29.00,APPROVED
OR: CORVALLIS,01/05/2011 16:30:00,,1823.00,1110.00,328.00,167.00,104.00,136.00,75.00,29.00,APPROVED
OR: CORVALLIS,01/05/2011 17:30:00,,1824.00,1116.00,330.00,169.00,105.00,135.00,78.00,29.00,APPROVED
OR: CORVALLIS,01/05/2011 18:30:00,,1913.00,1167.00,338.00,170.00,108.00,137.00,77.00,29.00,APPROVED
OR: CORVALLIS,01/05/2011 19:31:00,,1881.00,1151.00,336.00,170.00,106.00,137.00,80.00,29.00,APPROVED
OR: CORVALLIS,01/05/2011 20:31:00,,1870.00,1149.00,336.00,171.00,107.00,137.00,80.00,28.00,APPROVED
OR: CORVALLIS,01/05/2011 21:31:00,,1847.00,1134.00,332.00,170.00,107.00,133.00,83.00,31.00,APPROVED
OR: CORVALLIS,01/05/2011 22:31:00,,1829.00,1122.00,330.00,173.00,107.00,132.00,80.00,29.00,APPROVED
OR: CORVALLIS,01/05/2011 23:32:00,,1744.00,1087.00,323.00,167.00,106.00,134.00,81.00,30.00,APPROVED
OR: CORVALLIS,01/06/2011 00:32:00,,1746.00,1082.00,320.00,169.00,103.00,133.00,83.00,30.00,APPROVED
OR: CORVALLIS,01/06/2011 01:32:00,,1675.00,1049.00,310.00,164.00,103.00,127.00,80.00,29.00,APPROVED
OR: CORVALLIS,01/06/2011 02:33:00,,1696.00,1054.00,308.00,169.00,102.00,130.00,78.00,28.00,APPROVED
OR: CORVALLIS,01/06/2011 03:33:00,,1707.00,1062.00,312.00,166.00,105.00,129.00,80.00,30.00,APPROVED
OR: CORVALLIS,01/06/2011 04:33:00,,1703.00,1055.00,314.00,164.00,105.00,127.00,80.00,29.00,APPROVED
OR: CORVALLIS,01/06/2011 05:33:00,,1702.00,1056.00,314.00,166.00,105.00,130.00,78.00,28.00,APPROVED
OR: CORVALLIS,01/06/2011 06:34:00,,1703.00,1056.00,316.00,165.00,102.00,126.00,78.00,29.00,APPROVED
OR: CORVALLIS,01/06/2011 07:34:00,,1716.00,1065.00,315.00,165.00,101.00,128.00,79.00,28.00,APPROVED
OR: CORVALLIS,01/06/2011 08:34:00,,1714.00,1069.00,317.00,167.00,105.00,131.00,77.00,28.00,APPROVED
OR: CORVALLIS,01/06/2011 09:34:00,,1725.00,1078.00,318.00,164.00,104.00,134.00,79.00,29.00,APPROVED
OR: CORVALLIS,01/06/2011 10:35:00,,1747.00,1084.00,324.00,163.00,102.00,133.00,78.00,29.00,APPROVED
OR: CORVALLIS,01/06/2011 11:35:00,,1803.00,1149.00,338.00,178.00,105.00,140.00,81.00,29.00,APPROVED
OR: CORVALLIS,01/06/2011 12:35:00,,1852.00,1194.00,358.00,184.00,112.00,149.00,84.00,30.00,APPROVED
OR: CORVALLIS,01/06/2011 13:35:00,,1860.00,1220.00,360.00,190.00,114.00,154.00,85.00,31.00,APPROVED
OR: CORVALLIS,01/06/2011 14:36:00,,1844.00,1210.00,361.00,189.00,114.00,154.00,86.00,29.00,APPROVED
OR: CORVALLIS,01/06/2011 15:36:00,,1844.00,1207.00,360.00,190.00,117.00,152.00,86.00,31.00,APPROVED
OR: CORVALLIS,01/06/2011 16:36:00,,1812.00,1177.00,354.00,187.00,111.00,148.00,84.00,31.00,APPROVED
OR: CORVALLIS,01/06/2011 17:36:00,,1880.00,1210.00,360.00,190.00,114.00,150.00,85.00,31.00,APPROVED
OR: CORVALLIS,01/06/2011 17:44:00,,1905.00,1237.00,369.00,189.00,117.00,156.00,86.00,32.00,APPROVED
OR: CORVALLIS,01/06/2011 18:39:00,,1806.00,1072.00,303.00,152.00,100.00,124.00,75.00,27.00,APPROVED
OR: CORVALLIS,01/06/2011 19:40:00,,1835.00,1181.00,346.00,187.00,113.00,143.00,88.00,30.00,APPROVED
OR: CORVALLIS,01/06/2011 20:41:00,,1796.00,1217.00,370.00,204.00,121.00,160.00,92.00,32.00,APPROVED
OR: CORVALLIS,01/06/2011 21:41:00,,1610.00,1090.00,345.00,187.00,116.00,146.00,87.00,32.00,APPROVED
OR: CORVALLIS,01/06/2011 22:41:00,,1563.00,1048.00,334.00,176.00,111.00,141.00,89.00,32.00,APPROVED
OR: CORVALLIS,01/06/2011 23:41:00,,1486.00,982.00,322.00,165.00,105.00,135.00,83.00,32.00,APPROVED
OR: CORVALLIS,01/07/2011 00:42:00,,1393.00,922.00,296.00,158.00,101.00,128.00,82.00,32.00,APPROVED
OR: CORVALLIS,01/07/2011 01:42:00,,1456.00,941.00,305.00,162.00,102.00,127.00,81.00,32.00,APPROVED
OR: CORVALLIS,01/07/2011 02:42:00,,1547.00,991.00,312.00,161.00,102.00,130.00,79.00,30.00,APPROVED
OR: CORVALLIS,01/07/2011 03:42:00,,1617.00,1034.00,311.00,165.00,105.00,131.00,80.00,29.00,APPROVED
OR: CORVALLIS,01/07/2011 04:43:00,,1650.00,1057.00,319.00,165.00,105.00,134.00,77.00,28.00,APPROVED
OR: CORVALLIS,01/07/2011 05:43:00,,1674.00,1070.00,325.00,165.00,107.00,137.00,79.00,30.00,APPROVED
OR: CORVALLIS,01/07/2011 06:43:00,,1692.00,1087.00,338.00,168.00,107.00,141.00,78.00,29.00,APPROVED
OR: CORVALLIS,01/07/2011 07:43:00,,1725.00,1126.00,340.00,175.00,110.00,142.00,80.00,30.00,APPROVED
OR: CORVALLIS,01/07/2011 08:44:00,,1768.00,1169.00,361.00,183.00,113.00,150.00,84.00,31.00,APPROVED
OR: CORVALLIS,01/07/2011 09:44:00,,1788.00,1238.00,387.00,202.00,119.00,164.00,91.00,32.00,APPROVED
OR: CORVALLIS,01/07/2011 10:44:00,,1826.00,1292.00,402.00,214.00,126.00,172.00,96.00,33.00,APPROVED
OR: CORVALLIS,01/07/2011 11:44:00,,1895.00,1359.00,429.00,228.00,128.00,183.00,101.00,34.00,APPROVED
OR: CORVALLIS,01/07/2011 12:45:00,,1872.00,1319.00,415.00,219.00,129.00,181.00,100.00,36.00,APPROVED
OR: CORVALLIS,01/07/2011 13:45:00,,1771.00,1210.00,372.00,200.00,118.00,159.00,89.00,31.00,APPROVED
OR: CORVALLIS,01/07/2011 14:45:00,,1726.00,1140.00,357.00,185.00,114.00,148.00,85.00,30.00,APPROVED
OR: CORVALLIS,01/07/2011 15:45:00,,1711.00,1118.00,345.00,180.00,112.00,143.00,86.00,30.00,APPROVED
OR: CORVALLIS,01/07/2011 16:46:00,,1726.00,1120.00,348.00,181.00,109.00,146.00,84.00,30.00,APPROVED
OR: CORVALLIS,01/07/2011 17:46:00,,1760.00,1150.00,355.00,183.00,113.00,149.00,86.00,32.00,APPROVED
OR: CORVALLIS,01/07/2011 18:46:00,,1829.00,1198.00,364.00,188.00,115.00,150.00,86.00,30.00,APPROVED
OR: CORVALLIS,01/07/2011 19:46:00,,1799.00,1190.00,358.00,190.00,117.00,149.00,88.00,32.00,APPROVED
OR: CORVALLIS,01/07/2011 20:47:00,,1750.00,1166.00,361.00,190.00,117.00,151.00,90.00,32.00,APPROVED
OR: CORVALLIS,01/07/2011 21:47:00,,1733.00,1143.00,349.00,186.00,114.00,147.00,89.00,32.00,APPROVED
OR: CORVALLIS,01/07/2011 22:47:00,,1697.00,1115.00,349.00,180.00,111.00,145.00,87.00,32.00,APPROVED
OR: CORVALLIS,01/07/2011 23:47:00,,1635.00,1096.00,345.00,182.00,111.00,145.00,87.00,32.00,APPROVED
OR: CORVALLIS,01/08/2011 00:48:00,,1640.00,1096.00,341.00,182.00,112.00,143.00,85.00,30.00,APPROVED
OR: CORVALLIS,01/08/2011 01:48:00,,1655.00,1095.00,336.00,175.00,107.00,142.00,84.00,30.00,APPROVED
OR: CORVALLIS,01/08/2011 02:48:00,,1673.00,1097.00,339.00,180.00,110.00,141.00,85.00,30.00,APPROVED
OR: CORVALLIS,01/08/2011 03:49:00,,1678.00,1101.00,340.00,178.00,109.00,144.00,86.00,31.00,APPROVED
OR: CORVALLIS,01/08/2011 04:49:00,,1610.00,1067.00,331.00,175.00,109.00,141.00,86.00,30.00,APPROVED
OR: CORVALLIS,01/08/2011 05:49:00,,1587.00,1060.00,334.00,172.00,108.00,140.00,84.00,31.00,APPROVED
OR: CORVALLIS,01/08/2011 06:49:00,,1560.00,1029.00,327.00,170.00,106.00,138.00,83.00,30.00,APPROVED
OR: CORVALLIS,01/08/2011 07:50:00,,1505.00,949.00,294.00,154.00,97.00,126.00,79.00,29.00,APPROVED
OR: CORVALLIS,01/08/2011 08:50:00,,1495.00,915.00,282.00,145.00,94.00,116.00,72.00,28.00,APPROVED
OR: CORVALLIS,01/08/2011 09:50:00,,1506.00,915.00,274.00,141.00,94.00,113.00,72.00,27.00,APPROVED
OR: CORVALLIS,01/08/2011 10:50:00,,1529.00,918.00,276.00,139.00,92.00,117.00,67.00,26.00,APPROVED
OR: CORVALLIS,01/08/2011 11:51:00,,1539.00,913.00,272.00,138.00,92.00,112.00,66.00,25.00,APPROVED
OR: CORVALLIS,01/08/2011 12:51:00,,1553.00,918.00,274.00,139.00,94.00,115.00,67.00,26.00,APPROVED
OR: CORVALLIS,01/08/2011 13:51:00,,1564.00,930.00,275.00,140.00,94.00,119.00,68.00,26.00,APPROVED
OR: CORVALLIS,01/08/2011 14:51:00,,1576.00,931.00,277.00,139.00,89.00,120.00,66.00,25.00,APPROVED
OR: CORVALLIS,01/08/2011 15:52:00,,1581.00,939.00,281.00,139.00,93.00,115.00,67.00,27.00,APPROVED
OR: CORVALLIS,01/08/2011 16:52:00,,1585.00,954.00,282.00,142.00,94.00,118.00,65.00,26.00,APPROVED
OR: CORVALLIS,01/08/2011 17:52:00,,1595.00,969.00,290.00,148.00,94.00,118.00,68.00,28.00,APPROVED
OR: CORVALLIS,01/08/2011 18:52:00,,1601.00,999.00,302.00,154.00,99.00,124.00,76.00,28.00,APPROVED
OR: CORVALLIS,01/08/2011 19:53:00,,1590.00,1012.00,306.00,159.00,103.00,127.00,82.00,28.00,APPROVED
OR: CORVALLIS,01/08/2011 20:53:00,,1530.00,986.00,304.00,164.00,101.00,128.00,79.00,31.00,APPROVED
OR: CORVALLIS,01/08/2011 21:53:00,,1481.00,946.00,297.00,159.00,100.00,125.00,82.00,28.00,APPROVED
OR: CORVALLIS,01/08/2011 22:53:00,,1560.00,1009.00,312.00,160.00,102.00,128.00,80.00,29.00,APPROVED
OR: CORVALLIS,01/08/2011 23:54:00,,1722.00,1076.00,324.00,164.00,103.00,130.00,79.00,30.00,APPROVED
OR: CORVALLIS,01/09/2011 00:54:00,,1588.00,974.00,290.00,148.00,97.00,120.00,74.00,27.00,APPROVED
OR: CORVALLIS,01/09/2011 01:54:00,,1543.00,932.00,278.00,145.00,95.00,114.00,72.00,26.00,APPROVED
OR: CORVALLIS,01/09/2011 02:54:00,,1546.00,920.00,277.00,140.00,92.00,113.00,68.00,26.00,APPROVED
OR: CORVALLIS,01/09/2011 03:55:00,,1537.00,909.00,273.00,140.00,92.00,112.00,67.00,26.00,APPROVED
OR: CORVALLIS,01/09/2011 04:55:00,,1539.00,912.00,270.00,134.00,90.00,114.00,70.00,26.00,APPROVED
OR: CORVALLIS,01/09/2011 05:55:00,,1544.00,904.00,275.00,136.00,91.00,111.00,67.00,26.00,APPROVED
OR: CORVALLIS,01/09/2011 06:55:00,,1553.00,919.00,275.00,139.00,91.00,113.00,67.00,27.00,APPROVED
OR: CORVALLIS,01/09/2011 07:56:00,,1581.00,931.00,278.00,141.00,94.00,114.00,67.00,25.00,APPROVED
OR: CORVALLIS,01/09/2011 08:56:00,,1596.00,958.00,290.00,144.00,97.00,121.00,67.00,27.00,APPROVED
OR: CORVALLIS,01/09/2011 09:56:00,,1630.00,985.00,294.00,152.00,96.00,121.00,68.00,27.00,APPROVED
OR: CORVALLIS,01/09/2011 10:57:00,,1626.00,994.00,301.00,153.00,99.00,125.00,71.00,27.00,APPROVED
OR: CORVALLIS,01/09/2011 11:57:00,,1652.00,1036.00,313.00,159.00,101.00,131.00,74.00,28.00,APPROVED
OR: CORVALLIS,01/09/2011 12:57:00,,1724.00,1102.00,336.00,171.00,106.00,139.00,79.00,29.00,APPROVED
OR: CORVALLIS,01/09/2011 13:57:00,,1716.00,1097.00,332.00,169.00,106.00,140.00,79.00,29.00,APPROVED
OR: CORVALLIS,01/09/2011 14:58:00,,1725.00,1119.00,341.00,175.00,107.00,143.00,81.00,29.00,APPROVED
OR: CORVALLIS,01/09/2011 15:58:00,,1752.00,1127.00,339.00,175.00,107.00,143.00,81.00,29.00,APPROVED
OR: CORVALLIS,01/09/2011 16:58:00,,1735.00,1134.00,344.00,179.00,110.00,144.00,81.00,28.00,APPROVED
OR: CORVALLIS,01/09/2011 17:58:00,,1747.00,1135.00,348.00,178.00,108.00,145.00,82.00,30.00,APPROVED
OR: CORVALLIS,01/09/2011 18:59:00,,1686.00,1105.00,332.00,178.00,106.00,140.00,85.00,30.00,APPROVED
OR: CORVALLIS,01/09/2011 19:59:00,,1626.00,1072.00,330.00,174.00,110.00,137.00,84.00,30.00,APPROVED
OR: CORVALLIS,01/09/2011 20:59:00,,1547.00,1013.00,314.00,163.00,106.00,134.00,79.00,28.00,APPROVED
OR: CORVALLIS,01/09/2011 21:59:00,,1488.00,947.00,295.00,157.00,100.00,124.00,81.00,29.00,APPROVED
OR: CORVALLIS,01/09/2011 23:00:00,,1655.00,1072.00,326.00,166.00,104.00,134.00,82.00,29.00,APPROVED
OR: CORVALLIS,01/10/2011 00:00:00,,1658.00,1034.00,316.00,163.00,102.00,128.00,77.00,29.00,APPROVED
OR: CORVALLIS,01/10/2011 01:00:00,,1556.00,934.00,283.00,141.00,96.00,119.00,70.00,27.00,APPROVED
OR: CORVALLIS,01/10/2011 02:00:00,,1512.00,885.00,270.00,136.00,90.00,112.00,68.00,27.00,APPROVED
OR: CORVALLIS,01/10/2011 03:01:00,,1519.00,885.00,269.00,134.00,89.00,109.00,65.00,25.00,APPROVED
OR: CORVALLIS,01/10/2011 04:01:00,,1546.00,909.00,271.00,135.00,89.00,110.00,66.00,27.00,APPROVED
OR: CORVALLIS,01/10/2011 05:01:00,,1565.00,916.00,272.00,135.00,92.00,113.00,66.00,26.00,APPROVED
OR: CORVALLIS,01/10/2011 06:01:00,,1568.00,927.00,274.00,140.00,92.00,114.00,67.00,26.00,APPROVED
OR: CORVALLIS,01/10/2011 07:02:00,,1580.00,935.00,282.00,140.00,94.00,117.00,67.00,26.00,APPROVED
OR: CORVALLIS,01/10/2011 08:02:00,,1589.00,943.00,282.00,144.00,94.00,119.00,65.00,26.00,APPROVED
OR: CORVALLIS,01/10/2011 09:02:00,,1613.00,951.00,286.00,141.00,95.00,118.00,65.00,26.00,APPROVED
OR: CORVALLIS,01/10/2011 10:03:00,,1629.00,977.00,294.00,148.00,93.00,122.00,67.00,27.00,APPROVED
OR: CORVALLIS,01/10/2011 11:03:00,,1668.00,1013.00,308.00,154.00,99.00,127.00,70.00,28.00,APPROVED
OR: CORVALLIS,01/10/2011 12:03:00,,1684.00,1035.00,314.00,156.00,100.00,131.00,70.00,27.00,APPROVED
OR: CORVALLIS,01/10/2011 13:03:00,,1686.00,1055.00,318.00,159.00,103.00,133.00,75.00,28.00,APPROVED
OR: CORVALLIS,01/10/2011 14:04:00,,1679.00,1053.00,324.00,164.00,102.00,139.00,75.00,29.00,APPROVED
OR: CORVALLIS,01/10/2011 15:04:00,,1689.00,1063.00,322.00,160.00,102.00,138.00,73.00,28.00,APPROVED
OR: CORVALLIS,01/10/2011 16:04:00,,1722.00,1092.00,331.00,170.00,103.00,142.00,73.00,28.00,APPROVED
OR: CORVALLIS,01/10/2011 17:04:00,,1722.00,1105.00,339.00,171.00,106.00,144.00,77.00,29.00,APPROVED
OR: CORVALLIS,01/10/2011 18:05:00,,1817.00,1143.00,342.00,172.00,107.00,142.00,77.00,29.00,APPROVED
OR: CORVALLIS,01/10/2011 19:05:00,,1807.00,1128.00,343.00,175.00,109.00,142.00,78.00,29.00,APPROVED
OR: CORVALLIS,01/10/2011 20:05:00,,1792.00,1133.00,341.00,175.00,109.00,143.00,82.00,29.00,APPROVED
OR: CORVALLIS,01/10/2011 21:05:00,,1773.00,1130.00,344.00,177.00,108.00,145.00,82.00,31.00,APPROVED
OR: CORVALLIS,01/10/2011 22:06:00,,1721.00,1099.00,335.00,173.00,108.00,142.00,80.00,30.00,APPROVED
OR: CORVALLIS,01/10/2011 23:06:00,,1641.00,1065.00,331.00,173.00,108.00,139.00,82.00,30.00,APPROVED